Regional Weather Roundup
Issued by NWS

Home | Current Version | Previous Version | Graphics & Text | Print | Product List | Glossary On
Versions: 1 2 3 4 5 6 7 8 9 10 11 12 13 14 15 16 17 18 19 20 21 22 23 24 25 26 27 28 29 30 31 32 33 34 35 36 37 38 39 40 41 42 43 44 45 46 47 48 49 50
000
ASUS43 KLOT 222358
RWRIL

ILLINOIS REGIONAL WEATHER ROUNDUP
NATIONAL WEATHER SERVICE CHICAGO/ROMEOVILLE IL
600 PM CST MON DEC 22 2014

NOTE: "FAIR" INDICATES FEW OR NO CLOUDS BELOW 12,000 FEET WITH NO
SIGNIFICANT WEATHER AND/OR OBSTRUCTIONS TO VISIBILITY.

* THESE STATIONS ARE NOT UNDER NWS QUALITY CONTROL. THEY ALSO MAY NOT
  REPORT WEATHER SUCH AS PRECIPITATION OR FOG.

ILZ001-002-007-009-015-016-024-230100-
NORTHWEST ILLINOIS

CITY           SKY/WX    TMP DP  RH WIND       PRES   REMARKS
MOLINE         CLOUDY    39  38  96 E7        29.55F FOG     WCI  34
6HR MIN TEMP:  36; 6HR MAX TEMP:  39; 6HR PCP:  0.09;

$$

ILZ003-004-008-010-011-017-018-230100-
NORTH CENTRAL ILLINOIS

CITY           SKY/WX    TMP DP  RH WIND       PRES   REMARKS
ROCKFORD       NOT AVBL
$$

ILZ005-006-012>014-019>023-230100-
NORTHEAST ILLINOIS

CITY           SKY/WX    TMP DP  RH WIND       PRES   REMARKS
CHICAGO-OHARE  LGT RAIN  39  37  92 E15       29.67F FOG     WCI  31
6HR MIN TEMP:  35; 6HR MAX TEMP:  39; 6HR PCP:  0.21;

CHICAGO-MIDWAY NOT AVBL
AURORA         LGT RAIN  42  39  89 SE13      29.63F FOG
6HR MIN TEMP:  37; 6HR MAX TEMP:  42; 6HR PCP:  0.17;

WAUKEGAN       NOT AVBL
DUPAGE AIRPORT LGT RAIN  41  39  93 E10       29.64F FOG
6HR MIN TEMP:  36; 6HR MAX TEMP:  41; 6HR PCP:  0.14;

WHEELING       LGT RAIN  38  37  97 E8        29.70F FOG     WCI  32
6HR MIN TEMP:  35; 6HR MAX TEMP:  38; 6HR PCP:  0.22;

NORTHERLY ISL    N/A     37  36  96 E10         N/A  WCI  30
$$

LMZ740>746-230100-
SOUTHERN LAKE MICHIGAN

STATION/POSITION SKY/WX   TEMP    WIND        PRES    VSBY  WAVE
                          AIR SEA DIR/SP/G                  HT/PER
                          (F)     (DEG/KT/KT) (MB)    (MI)  (FT/S)
WAUKEGAN HARBOR            37     130/ 15/ 19   N/A
HARRISON CRIB              38     120/ 17/ 19   N/A
BURNHAM HARBOR             37     100/  9/ 10   N/A
CALUMET HARBOR             40     110/ 12/ 18 1004.4F
$$

ILZ025>027-034>036-040-047-049-050-058-095>099-230100-
WEST-CENTRAL ILLINOIS

CITY           SKY/WX    TMP DP  RH WIND       PRES   REMARKS
$$

ILZ028>032-037-038-041>044-048-051>054-059>061-230100-
CENTRAL ILLINOIS

CITY           SKY/WX    TMP DP  RH WIND       PRES   REMARKS
PEORIA         NOT AVBL
SPRINGFIELD    LGT RAIN  47  46  97 SE14      29.57F
6HR MIN TEMP:  43; 6HR MAX TEMP:  47; 6HR PCP:  0.22;

TAYLORVILLE    NOT AVBL
$$

ILZ033-039-045-046-055>057-062-063-230100-
EAST-CENTRAL ILLINOIS

CITY           SKY/WX    TMP DP  RH WIND       PRES   REMARKS
CHAMPAIGN      LGT RAIN  45  43  93 SE18      29.62F FOG
$$

ILZ079-100>102-230100-
SOUTHWEST ILLINOIS

CITY           SKY/WX    TMP DP  RH WIND       PRES   REMARKS
BELLEVILLE     LGT RAIN  48  48 100 SE7       29.55S
CAHOKIA*       CLOUDY    50  48  93 SE7       29.55S FOG
$$

ILZ064>066-069>071-074>076-080>082-084>086-088>090-092>094-230100-
SOUTH-CENTRAL ILLINOIS

CITY           SKY/WX    TMP DP  RH WIND       PRES   REMARKS
CARBONDALE     LGT RAIN  51  49  92 S10       29.59S FOG
6HR MIN TEMP:  49; 6HR MAX TEMP:  51; 6HR PCP:  0.12;

MARION         LGT RAIN  52  50  93 S12       29.60S
$$

ILZ067-068-072-073-078-083-087-091-230100-
SOUTHEAST ILLINOIS

CITY           SKY/WX    TMP DP  RH WIND       PRES   REMARKS
$$

ABBREVIATIONS USED IN REMARKS
   TC - TEMPERATURE IN CELSIUS
  WCI - WIND CHILL INDEX
   HX - HEAT INDEX
  VSB - VISIBILITY
$$



USA.gov is the U.S. government's official web portal to all federal, state and local government web resources and services.